Location: Bastelaar
(51.0950°N, 3.8602°E)
Time: 16:04:44
(UTC+00:00)

ATLAS CENTAUR R/B - Pass Details

Date: 18 November 2025
Orbit: 342 x 419 km, 64.6° (Epoch: 13 December)

Event Time Altitude Azimuth Distance (km) Brightness Sun altitude
Rises 17:18:09 0° 272° (W) 2,447 6.2 -13.2°
Reaches altitude 10° 17:20:53 10° 295° (WNW) 1,579 4.4 -13.6°
Maximum altitude 17:23:09 16° 335° (NNW) 1,256 3.3 -14.0°
Drops below altitude 10° 17:25:28 10° 16° (NNE) 1,589 3.4 -14.3°
Enters shadow 17:25:32 10° 17° (NNE) 1,607 3.4 -14.3°
